Location: B�hl
(48.6968°N, 8.1352°E)
Time: 08:42:37
(UTC+00:00)

Cosmos 468 Rocket - Pass Details

Date: 08 March 2021
Orbit: 745 x 779 km, 74.0° (Epoch: 13 April)

Event Time Altitude Azimuth Distance (km) Brightness Sun altitude
Rises 19:06:34 0° 179° (S) 3,248 7.1 -17.9°
Reaches altitude 10° 19:09:04 10° 172° (S) 2,323 6.3 -18.3°
Maximum altitude 19:13:57 40° 104° (ESE) 1,134 4.4 -19.1°
Drops below altitude 10° 19:18:52 10° 36° (NE) 2,326 6.3 -19.9°
Sets 19:21:21 0° 29° (NNE) 3,253 7.1 -20.3°
